Time,TemperatureF,DewpointF,PressureIn,WindDirection,WindDirectionDegrees,WindSpeedMPH,WindSpeedGustMPH,Humidity,HourlyPrecipIn,Conditions,Clouds,dailyrainin,SoftwareType,DateUTC
2013-02-08 00:02:00,31.0,24.0,30.17,North,0,0.0,0.0,74,0.00,,,0.05,,2013-02-08 05:02:00,
2013-02-08 00:12:00,31.0,24.0,30.17,North,0,0.0,0.0,74,0.00,,,0.05,,2013-02-08 05:12:00,
2013-02-08 00:22:00,31.0,24.0,30.17,North,0,0.0,0.0,75,0.00,,,0.05,,2013-02-08 05:22:00,
2013-02-08 00:32:00,31.0,24.0,30.16,North,0,0.0,1.0,75,0.00,,,0.05,,2013-02-08 05:32:00,
2013-02-08 00:42:00,31.0,24.0,30.16,North,0,0.0,1.0,75,0.00,,,0.05,,2013-02-08 05:42:00,
2013-02-08 00:52:00,31.0,24.0,30.15,North,0,0.0,0.0,76,0.00,,,0.05,,2013-02-08 05:52:00,
2013-02-08 01:01:00,31.0,25.0,30.15,North,0,0.0,0.0,77,0.00,,,0.05,,2013-02-08 06:01:00,
2013-02-08 01:11:00,31.0,25.0,30.15,North,0,0.0,0.0,77,0.00,,,0.05,,2013-02-08 06:11:00,
2013-02-08 01:21:00,31.0,25.0,30.13,North,0,0.0,0.0,77,0.00,,,0.05,,2013-02-08 06:21:00,
2013-02-08 01:32:00,31.0,25.0,30.11,North,0,0.0,0.0,77,0.00,,,0.05,,2013-02-08 06:32:00,
2013-02-08 01:42:00,31.0,25.0,30.11,North,0,0.0,0.0,77,0.00,,,0.05,,2013-02-08 06:42:00,
2013-02-08 01:52:00,31.0,25.0,30.11,North,0,0.0,1.0,77,0.00,,,0.05,,2013-02-08 06:52:00,
2013-02-08 02:01:00,31.0,25.0,30.10,North,0,0.0,0.0,77,0.00,,,0.05,,2013-02-08 07:01:00,
2013-02-08 02:11:00,31.0,25.0,30.11,North,0,0.0,1.0,77,0.00,,,0.05,,2013-02-08 07:11:00,
2013-02-08 02:21:00,31.0,25.0,30.11,North,0,0.0,1.0,77,0.00,,,0.05,,2013-02-08 07:21:00,
2013-02-08 02:32:00,31.0,25.0,30.10,North,0,0.0,0.0,78,0.00,,,0.05,,2013-02-08 07:32:00,
2013-02-08 02:42:00,31.0,25.0,30.09,North,0,0.0,0.0,78,0.00,,,0.05,,2013-02-08 07:42:00,
2013-02-08 02:52:00,31.0,25.0,30.09,North,0,0.0,0.0,78,0.00,,,0.05,,2013-02-08 07:52:00,
2013-02-08 03:01:00,31.0,25.0,30.07,North,0,0.0,0.0,79,0.00,,,0.05,,2013-02-08 08:01:00,
2013-02-08 03:11:00,31.0,26.0,30.05,North,0,0.0,0.0,80,0.00,,,0.05,,2013-02-08 08:11:00,
2013-02-08 03:21:00,31.0,26.0,30.05,North,0,0.0,0.0,80,0.00,,,0.05,,2013-02-08 08:21:00,
2013-02-08 03:32:00,31.0,26.0,30.03,North,0,0.0,1.0,81,0.00,,,0.05,,2013-02-08 08:32:00,
2013-02-08 03:42:00,31.0,26.0,30.03,North,0,0.0,1.0,81,0.00,,,0.05,,2013-02-08 08:42:00,
2013-02-08 03:52:00,32.0,27.0,30.04,North,0,0.0,1.0,82,0.00,,,0.05,,2013-02-08 08:52:00,
2013-02-08 04:03:00,32.0,27.0,30.03,North,0,0.0,1.0,83,0.00,,,0.05,,2013-02-08 09:03:00,
2013-02-08 04:11:00,32.0,27.0,30.03,North,0,0.0,1.0,83,0.00,,,0.05,,2013-02-08 09:11:00,
2013-02-08 04:21:00,32.0,27.0,30.03,North,0,0.0,1.0,83,0.00,,,0.05,,2013-02-08 09:21:00,
2013-02-08 04:32:00,32.0,28.0,30.02,North,0,0.0,1.0,84,0.00,,,0.05,,2013-02-08 09:32:00,
2013-02-08 04:42:00,32.0,28.0,30.02,North,0,0.0,1.0,84,0.00,,,0.05,,2013-02-08 09:42:00,
2013-02-08 04:52:00,32.0,28.0,30.01,North,0,0.0,1.0,85,0.00,,,0.05,,2013-02-08 09:52:00,
2013-02-08 05:01:00,33.0,29.0,30.00,North,0,0.0,0.0,86,0.00,,,0.05,,2013-02-08 10:01:00,
2013-02-08 05:12:00,33.0,29.0,30.00,North,0,0.0,0.0,86,0.00,,,0.05,,2013-02-08 10:12:00,
2013-02-08 05:22:00,33.0,30.0,30.00,North,0,0.0,0.0,87,0.00,,,0.05,,2013-02-08 10:22:00,
2013-02-08 05:32:00,33.0,30.0,29.99,North,0,0.0,1.0,88,0.00,,,0.05,,2013-02-08 10:32:00,
2013-02-08 05:42:00,33.0,30.0,29.99,North,0,0.0,1.0,88,0.00,,,0.05,,2013-02-08 10:42:00,
2013-02-08 05:52:00,33.0,30.0,29.98,North,0,0.0,0.0,88,0.00,,,0.05,,2013-02-08 10:52:00,
2013-02-08 06:01:00,33.0,30.0,29.97,North,0,0.0,0.0,89,0.00,,,0.05,,2013-02-08 11:01:00,
2013-02-08 06:11:00,33.0,30.0,29.97,North,0,0.0,0.0,89,0.00,,,0.05,,2013-02-08 11:11:00,
2013-02-08 06:21:00,33.0,30.0,29.96,North,0,0.0,0.0,90,0.00,,,0.05,,2013-02-08 11:21:00,
2013-02-08 06:32:00,34.0,31.0,29.96,North,0,0.0,1.0,90,0.00,,,0.05,,2013-02-08 11:32:00,
2013-02-08 06:42:00,34.0,31.0,29.96,North,0,0.0,1.0,90,0.00,,,0.05,,2013-02-08 11:42:00,
2013-02-08 06:52:00,34.0,32.0,29.95,North,0,0.0,0.0,91,0.00,,,0.05,,2013-02-08 11:52:00,
2013-02-08 07:02:00,34.0,32.0,29.94,North,0,0.0,1.0,91,0.00,,,0.05,,2013-02-08 12:02:00,
2013-02-08 07:11:00,34.0,32.0,29.94,North,0,0.0,1.0,91,0.00,,,0.05,,2013-02-08 12:11:00,
2013-02-08 07:22:00,34.0,32.0,29.94,North,0,0.0,0.0,91,0.00,,,0.05,,2013-02-08 12:22:00,
2013-02-08 07:33:00,34.0,32.0,29.93,North,0,0.0,0.0,92,0.00,,,0.05,,2013-02-08 12:33:00,
2013-02-08 07:42:00,34.0,32.0,29.93,North,0,0.0,0.0,92,0.00,,,0.05,,2013-02-08 12:42:00,
2013-02-08 07:52:00,34.0,32.0,29.93,North,0,0.0,3.0,93,0.00,,,0.05,,2013-02-08 12:52:00,
2013-02-08 08:02:00,34.0,32.0,29.92,North,0,0.0,1.0,93,0.00,,,0.05,,2013-02-08 13:02:00,
2013-02-08 08:12:00,34.0,32.0,29.92,North,0,0.0,1.0,93,0.00,,,0.05,,2013-02-08 13:12:00,
2013-02-08 08:22:00,34.0,32.0,29.91,North,0,0.0,1.0,93,0.00,,,0.05,,2013-02-08 13:22:00,
2013-02-08 08:32:00,34.0,32.0,29.91,North,0,0.0,2.0,94,0.00,,,0.05,,2013-02-08 13:32:00,
2013-02-08 08:42:00,34.0,32.0,29.91,North,0,0.0,2.0,94,0.00,,,0.05,,2013-02-08 13:42:00,
2013-02-08 08:52:00,34.0,32.0,29.90,North,0,0.0,3.0,94,0.00,,,0.05,,2013-02-08 13:52:00,
2013-02-08 09:02:00,34.0,32.0,29.88,North,0,0.0,1.0,94,0.00,,,0.05,,2013-02-08 14:02:00,
2013-02-08 09:11:00,34.0,32.0,29.88,North,0,0.0,1.0,94,0.00,,,0.05,,2013-02-08 14:11:00,
2013-02-08 09:22:00,34.0,32.0,29.87,North,0,0.0,4.0,94,0.00,,,0.05,,2013-02-08 14:22:00,
2013-02-08 09:32:00,34.0,32.0,29.87,North,0,0.0,2.0,94,0.00,,,0.05,,2013-02-08 14:32:00,
2013-02-08 09:42:00,34.0,32.0,29.87,North,0,0.0,2.0,94,0.00,,,0.05,,2013-02-08 14:42:00,
2013-02-08 09:52:00,34.0,33.0,29.86,North,0,0.0,3.0,95,0.00,,,0.05,,2013-02-08 14:52:00,
2013-02-08 10:02:00,34.0,33.0,29.84,North,0,0.0,3.0,95,0.00,,,0.05,,2013-02-08 15:02:00,
2013-02-08 10:12:00,34.0,33.0,29.84,North,0,0.0,3.0,95,0.00,,,0.05,,2013-02-08 15:12:00,
2013-02-08 10:22:00,34.0,33.0,29.82,North,0,0.0,1.0,95,0.00,,,0.05,,2013-02-08 15:22:00,
2013-02-08 10:32:00,34.0,33.0,29.81,North,0,0.0,4.0,95,0.00,,,0.05,,2013-02-08 15:32:00,
2013-02-08 10:42:00,34.0,33.0,29.81,North,0,0.0,4.0,95,0.00,,,0.05,,2013-02-08 15:42:00,
2013-02-08 10:52:00,34.0,33.0,29.80,North,0,0.0,7.0,95,0.00,,,0.05,,2013-02-08 15:52:00,
2013-02-08 11:01:00,34.0,33.0,29.79,North,0,0.0,6.0,95,0.00,,,0.05,,2013-02-08 16:01:00,
2013-02-08 11:11:00,34.0,33.0,29.79,North,0,0.0,6.0,95,0.00,,,0.05,,2013-02-08 16:11:00,
2013-02-08 11:22:00,34.0,33.0,29.79,North,0,0.0,2.0,95,0.00,,,0.05,,2013-02-08 16:22:00,
2013-02-08 11:32:00,35.0,34.0,29.78,North,0,0.0,3.0,95,0.00,,,0.05,,2013-02-08 16:32:00,
2013-02-08 11:42:00,35.0,34.0,29.78,North,0,0.0,3.0,95,0.00,,,0.05,,2013-02-08 16:42:00,
2013-02-08 11:52:00,35.0,34.0,29.75,North,0,0.0,5.0,96,0.01,,,0.06,,2013-02-08 16:52:00,
2013-02-08 12:03:00,35.0,34.0,29.75,North,0,0.0,4.0,96,0.01,,,0.06,,2013-02-08 17:03:00,
2013-02-08 12:12:00,35.0,34.0,29.75,North,0,0.0,4.0,96,0.01,,,0.06,,2013-02-08 17:12:00,
2013-02-08 12:23:00,35.0,34.0,29.73,North,0,0.0,5.0,96,0.01,,,0.06,,2013-02-08 17:23:00,
2013-02-08 12:32:00,35.0,34.0,29.72,NNE,33,2.0,9.0,96,0.01,,,0.05,,2013-02-08 17:32:00,
2013-02-08 12:42:00,35.0,34.0,29.72,NNE,33,2.0,9.0,96,0.01,,,0.05,,2013-02-08 17:42:00,
2013-02-08 12:53:00,35.0,34.0,29.71,North,0,0.0,4.0,96,0.00,,,0.05,,2013-02-08 17:53:00,
2013-02-08 13:02:00,35.0,34.0,29.70,North,0,0.0,3.0,96,0.00,,,0.05,,2013-02-08 18:02:00,
2013-02-08 13:12:00,35.0,34.0,29.70,North,0,0.0,3.0,96,0.00,,,0.05,,2013-02-08 18:12:00,
2013-02-08 13:24:00,35.0,34.0,29.67,North,0,0.0,5.0,96,0.00,,,0.04,,2013-02-08 18:24:00,
2013-02-08 13:35:00,35.0,34.0,29.67,North,0,0.0,6.0,96,0.00,,,0.04,,2013-02-08 18:35:00,
2013-02-08 13:53:00,35.0,34.0,29.67,North,0,0.0,6.0,96,0.00,,,0.04,,2013-02-08 18:53:00,
2013-02-08 14:02:00,35.0,34.0,29.65,North,0,0.0,4.0,96,0.00,,,0.04,,2013-02-08 19:02:00,
2013-02-08 14:11:00,35.0,34.0,29.65,North,0,0.0,4.0,96,0.00,,,0.04,,2013-02-08 19:11:00,
2013-02-08 14:22:00,35.0,34.0,29.64,North,0,0.0,4.0,96,0.01,,,0.04,,2013-02-08 19:22:00,
2013-02-08 14:32:00,36.0,35.0,29.63,North,0,0.0,4.0,96,0.01,,,0.04,,2013-02-08 19:32:00,
2013-02-08 14:42:00,36.0,35.0,29.63,North,0,0.0,4.0,96,0.01,,,0.04,,2013-02-08 19:42:00,
2013-02-08 14:52:00,36.0,35.0,29.64,North,0,0.0,3.0,96,0.02,,,0.05,,2013-02-08 19:52:00,
2013-02-08 15:02:00,36.0,35.0,29.64,North,0,0.0,3.0,96,0.02,,,0.05,,2013-02-08 20:02:00,
2013-02-08 15:12:00,36.0,35.0,29.64,North,0,0.0,3.0,96,0.02,,,0.05,,2013-02-08 20:12:00,
2013-02-08 15:22:00,35.0,34.0,29.64,North,360,2.0,6.0,96,0.02,,,0.05,,2013-02-08 20:22:00,
2013-02-08 15:32:00,35.0,34.0,29.64,North,0,0.0,3.0,96,0.02,,,0.05,,2013-02-08 20:32:00,
2013-02-08 15:42:00,35.0,34.0,29.64,North,0,0.0,3.0,96,0.02,,,0.05,,2013-02-08 20:42:00,
2013-02-08 15:52:00,36.0,35.0,29.63,North,0,0.0,3.0,96,0.02,,,0.06,,2013-02-08 20:52:00,
2013-02-08 16:02:00,36.0,35.0,29.62,North,0,0.0,3.0,96,0.02,,,0.06,,2013-02-08 21:02:00,
2013-02-08 16:11:00,36.0,35.0,29.62,North,0,0.0,3.0,96,0.02,,,0.06,,2013-02-08 21:11:00,
2013-02-08 16:22:00,36.0,35.0,29.62,NNW,339,2.0,7.0,96,0.02,,,0.07,,2013-02-08 21:22:00,
2013-02-08 16:32:00,35.0,34.0,29.61,North,0,0.0,5.0,95,0.02,,,0.07,,2013-02-08 21:32:00,
2013-02-08 16:42:00,35.0,34.0,29.61,North,0,0.0,5.0,95,0.02,,,0.07,,2013-02-08 21:42:00,
2013-02-08 16:52:00,35.0,34.0,29.62,North,0,0.0,5.0,95,0.02,,,0.07,,2013-02-08 21:52:00,
2013-02-08 17:02:00,35.0,34.0,29.62,North,0,0.0,4.0,95,0.02,,,0.07,,2013-02-08 22:02:00,
2013-02-08 17:11:00,35.0,34.0,29.62,North,0,0.0,4.0,95,0.02,,,0.07,,2013-02-08 22:11:00,
2013-02-08 17:22:00,35.0,34.0,29.64,North,355,1.0,5.0,95,0.02,,,0.08,,2013-02-08 22:22:00,
2013-02-08 17:32:00,34.0,33.0,29.62,North,0,0.0,3.0,95,0.02,,,0.08,,2013-02-08 22:32:00,
2013-02-08 17:42:00,34.0,33.0,29.62,North,0,0.0,3.0,95,0.02,,,0.08,,2013-02-08 22:42:00,
2013-02-08 17:52:00,34.0,33.0,29.56,NNE,17,2.0,5.0,95,0.01,,,0.08,,2013-02-08 22:52:00,
2013-02-08 18:01:00,34.0,33.0,29.23,NNW,340,2.0,6.0,95,0.02,,,0.09,,2013-02-08 23:01:00,
2013-02-08 18:11:00,34.0,33.0,29.23,NNW,340,2.0,6.0,95,0.02,,,0.09,,2013-02-08 23:11:00,
2013-02-08 18:21:00,34.0,33.0,28.64,North,350,2.0,5.0,95,0.01,,,0.09,,2013-02-08 23:21:00,
2013-02-08 18:32:00,34.0,33.0,28.64,North,353,2.0,4.0,95,0.01,,,0.09,,2013-02-08 23:32:00,
2013-02-08 18:42:00,34.0,33.0,28.64,North,353,2.0,4.0,95,0.01,,,0.09,,2013-02-08 23:42:00,
2013-02-08 18:52:00,33.0,32.0,28.44,North,349,1.0,5.0,95,0.02,,,0.10,,2013-02-08 23:52:00,
2013-02-08 19:02:00,33.0,32.0,28.74,North,355,2.0,6.0,96,0.01,,,0.10,,2013-02-09 00:02:00,
2013-02-08 19:11:00,33.0,32.0,28.74,North,355,2.0,6.0,96,0.01,,,0.10,,2013-02-09 00:11:00,
2013-02-08 19:22:00,33.0,32.0,29.09,NNW,348,2.0,5.0,96,0.01,,,0.10,,2013-02-09 00:22:00,
2013-02-08 19:32:00,33.0,32.0,29.05,North,350,2.0,5.0,96,0.02,,,0.11,,2013-02-09 00:32:00,
2013-02-08 19:42:00,33.0,32.0,29.05,North,350,2.0,5.0,96,0.02,,,0.11,,2013-02-09 00:42:00,
2013-02-08 19:52:00,33.0,32.0,29.12,North,356,1.0,4.0,96,0.01,,,0.11,,2013-02-09 00:52:00,
2013-02-08 20:01:00,33.0,32.0,29.19,North,355,2.0,7.0,96,0.01,,,0.11,,2013-02-09 01:01:00,
2013-02-08 20:11:00,33.0,32.0,29.19,North,355,2.0,7.0,96,0.01,,,0.11,,2013-02-09 01:11:00,
2013-02-08 20:22:00,33.0,32.0,29.19,North,349,2.0,6.0,96,0.01,,,0.11,,2013-02-09 01:22:00,
2013-02-08 20:32:00,33.0,32.0,29.19,North,0,0.0,3.0,96,0.00,,,0.11,,2013-02-09 01:32:00,
2013-02-08 20:42:00,33.0,32.0,29.19,North,0,0.0,3.0,96,0.00,,,0.11,,2013-02-09 01:42:00,
2013-02-08 20:52:00,33.0,32.0,29.27,North,0,0.0,4.0,96,0.00,,,0.11,,2013-02-09 01:52:00,
2013-02-08 21:01:00,33.0,32.0,29.35,NNE,17,1.0,6.0,96,0.00,,,0.11,,2013-02-09 02:01:00,
2013-02-08 21:11:00,33.0,32.0,29.23,North,1,1.0,4.0,96,0.01,,,0.12,,2013-02-09 02:11:00,
2013-02-08 21:21:00,33.0,32.0,29.23,North,1,1.0,4.0,96,0.01,,,0.12,,2013-02-09 02:21:00,
2013-02-08 21:32:00,33.0,32.0,29.62,North,0,0.0,4.0,96,0.01,,,0.12,,2013-02-09 02:32:00,
2013-02-08 21:42:00,33.0,32.0,29.62,North,0,0.0,4.0,96,0.01,,,0.12,,2013-02-09 02:42:00,
2013-02-08 21:53:00,33.0,32.0,29.54,North,0,0.0,1.0,96,0.01,,,0.12,,2013-02-09 02:53:00,
2013-02-08 22:02:00,33.0,32.0,29.63,North,0,0.0,2.0,96,0.01,,,0.12,,2013-02-09 03:02:00,
2013-02-08 22:11:00,33.0,32.0,29.63,North,0,0.0,2.0,96,0.01,,,0.12,,2013-02-09 03:11:00,
2013-02-08 22:22:00,33.0,32.0,29.64,North,0,0.0,2.0,96,0.00,,,0.12,,2013-02-09 03:22:00,
2013-02-08 22:32:00,33.0,32.0,29.60,North,0,0.0,4.0,96,0.00,,,0.12,,2013-02-09 03:32:00,
2013-02-08 22:42:00,33.0,32.0,29.60,North,0,0.0,4.0,96,0.00,,,0.12,,2013-02-09 03:42:00,
2013-02-08 22:53:00,33.0,32.0,29.64,NNW,347,3.0,7.0,96,0.00,,,0.12,,2013-02-09 03:53:00,
2013-02-08 23:03:00,33.0,32.0,29.65,NNW,347,2.0,9.0,96,0.00,,,0.12,,2013-02-09 04:03:00,
2013-02-08 23:12:00,33.0,32.0,29.66,North,353,3.0,13.0,96,0.00,,,0.12,,2013-02-09 04:12:00,
2013-02-08 23:23:00,33.0,32.0,29.66,North,353,3.0,13.0,96,0.00,,,0.12,,2013-02-09 04:23:00,
2013-02-08 23:32:00,32.0,31.0,29.63,North,350,6.0,12.0,96,0.01,,,0.13,,2013-02-09 04:32:00,
2013-02-08 23:42:00,32.0,31.0,29.63,North,350,6.0,12.0,96,0.01,,,0.13,,2013-02-09 04:42:00,
2013-02-08 23:52:00,32.0,31.0,29.69,North,9,2.0,9.0,96,0.01,,,0.13,,2013-02-09 04:52:00,